{"data":{"norad_id":58538,"epoch":"2026-09-20T15:39:19.775808Z","epoch_age_seconds":133561,"freshness":"FRESH","line1":"1 58538U 23192H   26263.65231222 -.00000609  00000+0 -68966-5 0  9994","line2":"2 58538  53.1601 233.0007 0001334 100.5089 259.6064 15.34380552155892","mean_motion":15.34380552,"eccentricity":0.0001334,"inclination_deg":53.1601,"raan_deg":233.0007,"arg_perigee_deg":100.5089,"mean_anomaly_deg":259.6064,"bstar":-6.8966e-6,"rev_number":15589,"period_min":93.84894758494,"perigee_km":461.84846857301,"apogee_km":463.67362017124,"semimajor_km":6840.8980443721,"source":"CELESTRAK","updated_at":"2026-09-21T09:00:33.913289Z"}}